ONEWEB-0290, 49080

Orbit data source: Space-Track

ONEWEB-0290, 49080 is a payload satellite owned by One Web (NAA) (UK) in LEO that was launched on Sat, 21 Aug 2021 UTC via a SOYUZ-2-1B launch vehicle from the Tyuratam Missile And Space Complex (TTMTR). Payload-class satellites include a variety of spacecraft equipped with specific instruments for various scientific and technological missions. These include communications satellites like Starlink; space stations such as the ISS; scientific satellites like the Hubble; Earth observation satellites from companies like Planet Labs, Umbra, and HawkEye 360; GPS; miniature CubeSats for education and research; and military/defense satellites.

Loading next visibility...
Identifier
49080, 2021-075F
Orbit
LEO
Country
Flag of UKUK
Related business
Manufacturer
One Web
Mission
Operational Commercial Communications
Bus & Motor
ARROW, Unknown motor
Mass
148 kg wet, ~140 kg dry
Launch date (UTC)
2021-08-21 (5 years ago)
Launch vehicle
SOYUZ-2-1B
Launch site
Tyuratam Missile And Space Complex (TTMTR)
Object type
Payload
Rocket body
Debris
Shape & HBR
Trap Box + 2 Pan, 6.7 m
Radar Cross Section
3.464 m², Large (>1 m²)

Expand to show TLE details & history
Last TLE update: 21 hours ago

TLE from 21 hours ago
0 ONEWEB-0290
1 49080U 21075F   26175.24053769  .00000007  00000-0 -14486-4 0  9998
2 49080  87.9140   4.4516 0002028 104.2798 255.8559 13.17649022234547
Epoch: 2026-06-24T05:46Z
TLE epoch observation values (Epoch: 2026-06-24T05:46:22.456Z)
Latitude
-0°
Longitude
5.45745°
Altitude
1,196.987 km
Speed
7.255 km/s
True Right ascension
00h 17m 48s
True Declination
0° 00' 00"
Sunlit
Object was in daylight at epoch
Visualization orbit readout
Latitude
Unknown
Longitude
Unknown
Altitude
Unknown
Speed
Unknown
Apparent Right ascension
Unknown
Apparent Declination
Unknown
Sunlit
N/A
Visualization observer readout
Local Sidereal Time
13:53:22
Azimuth
Unknown
Elevation
Unknown
Doppler factor
Unknown
Orbital elements
Apogee altitude
1,192.357 km
Perigee altitude
1,189.287 km
Semi-major axis
7,568.959 km
Eccentricity
0.0002
Inclination
87.914°
RAAN
4.4516°
Arg. of periapsis
104.2798°
True anomaly
255.83337°
Mean anomaly
255.8559°
Eccentric anomaly
255.84463°
Mean motion
3.29601 °/min
Orbital period
109.22 mins
BSTAR
-0.000014486
Loading maneuver chart data...
Computing Atmospheric mass density...
Loading historical data...
Loading historical data...
Loading historical data...
Loading historical data...
Loading historical data...
Loading historical data...
Loading historical data...

Documentation

Showing up to 5 results
|